FW3942 Weather Reports


Display with metric or nautical units.
time (UTC)temp
F
wind
direction
speed
MPH
gust
MPH
rain 1hr
in
rain 24hr
in
rain mn
in
humidity
%
barometer
mb
20260504090119 36 303 16.0 23.0 0.02 0.27 0.06 95 978.9
20260504081547 37 261 11.0 16.0 0.03 0.25 0.04 95 977.1
20260504050020 41 54 3.0 8.0 0.00 0.21 0.00 85 975.9
20260504044532 42 84 5.0 12.0 0.00 0.21 0.00 84 976.4
20260504043019 42 113 2.0 15.0 0.00 0.21 0.00 84 976.6
20260504041509 43 122 8.0 16.0 0.00 0.21 0.00 84 976.8
20260504040006 43 124 8.0 15.0 0.00 0.21 0.00 85 977.4
20260504034505 43 161 10.0 14.0 0.00 0.21 0.00 85 977.9
20260504033003 43 231 2.0 14.0 0.00 0.21 0.00 85 978.1
20260504031501 43 235 4.0 14.0 0.00 0.21 0.00 86 978.1
20260504030058 43 49 3.0 15.0 0.00 0.21 0.00 86 978.5
20260504024605 42 53 13.0 22.0 0.00 0.21 0.21 85 978.2
20260504023055 43 86 11.0 22.0 0.00 0.21 0.21 84 979.6
20260504021553 42 36 20.0 31.0 0.00 0.21 0.21 85 980.5
20260504020051 42 255 8.0 23.0 0.00 0.21 0.21 85 981.3
20260504014551 42 47 20.0 43.0 0.00 0.21 0.21 84 980.8
20260504013052 42 112 28.0 58.0 0.00 0.21 0.21 85 980.3
20260504011550 43 59 33.0 54.0 0.00 0.21 0.21 86 981.0
20260504010054 43 125 32.0 48.0 0.02 0.21 0.21 87 981.5
20260504004544 42 115 34.0 62.0 0.02 0.21 0.21 87 981.2
20260504003042 42 84 35.0 58.0 0.03 0.21 0.21 87 981.9
20260504001559 41 72 32.0 51.0 0.03 0.21 0.21 88 983.5
20260504000040 42 94 27.0 49.0 0.02 0.20 0.20 87 984.4
20260503234534 42 59 9.0 37.0 0.02 0.19 0.19 87 987.0
20260503233031 42 47 13.0 28.0 0.03 0.18 0.18 88 988.4
20260503231529 42 87 8.0 32.0 0.05 0.18 0.18 89 990.2
20260503230025 41 132 6.0 22.0 0.06 0.18 0.18 92 992.0
20260503224522 40 35 16.0 24.0 0.06 0.17 0.17 92 992.5
20260503223018 39 41 20.0 30.0 0.07 0.15 0.15 91 993.5
20260503221528 39 8 11.0 16.0 0.07 0.13 0.13 90 994.8
20260503220018 40 347 10.0 15.0 0.06 0.12 0.12 90 994.9
20260503214515 39 323 6.0 13.0 0.04 0.10 0.10 90 995.6
20260503213026 40 34 10.0 32.0 0.02 0.08 0.08 90 995.0
20260503211516 40 43 7.0 26.0 0.02 0.06 0.06 91 996.2
20260503210009 40 17 18.0 28.0 0.04 0.06 0.06 90 996.3
20260503204505 41 8 17.0 24.0 0.05 0.06 0.06 87 997.2
20260503203002 42 18 15.0 23.0 0.06 0.06 0.06 86 998.1
20260503201559 43 11 13.0 17.0 0.04 0.04 0.04 85 999.0
20260503200057 43 45 5.0 13.0 0.02 0.02 0.02 84 999.3
20260503194555 43 49 11.0 19.0 0.02 0.02 0.02 80 1000.5
20260503193054 45 26 6.0 14.0 0.00 0.00 0.00 76 1001.2
20260503191546 46 119 13.0 19.0 0.00 0.00 0.00 71 1002.5
20260503190047 48 104 12.0 21.0 0.00 0.00 0.00 66 1003.0
20260503184544 49 85 15.0 24.0 0.00 0.00 0.00 61 1003.4
20260503183041 50 104 13.0 24.0 0.00 0.00 0.00 53 1004.1
20260503181612 51 89 13.0 25.0 0.00 0.00 0.00 47 1004.2
20260503180041 52 133 10.0 25.0 0.00 0.00 0.00 42 1004.7
20260503174537 52 86 15.0 25.0 0.00 0.00 0.00 41 1004.6
20260503173045 52 79 13.0 21.0 0.00 0.00 0.00 40 1005.7
20260503171530 51 121 12.0 20.0 0.00 0.00 0.00 45 1006.0